Temp
16 17 17 17 17 17 17 17 18 18 18 18 19 19 19 19 19 20 20 20 20 19 19 19 19 19 19 19 18 18 13 14 18 18 19 20 18 21 21 21 20 21 21 21 21
16 16 16 17 17 17 17 17 18 18 18 18 18 19 19 19 20 20 20 19 19 19 19 19 19 18 18 18 18 16 12 15 18 19 18 19 19 19 19 19 21 20 21 20 20
16 16 16 16 17 17 17 17 17 18 18 18 18 18 18 19 19 19 20 20 20 19 19 18 18 18 18 18 18 16 14 15 18 18 18 18 18 19 18 16 20 20 19 19 20
16 16 16 16 17 17 17 17 17 17 17 17 18 18 18 18 18 20 20 19 19 19 19 18 17 17 17 16 18 17 17 18 19 19 18 17 18 18 18 20 20 19 19 19 20
15 15 16 16 16 16 16 16 16 17 17 17 17 17 17 17 19 19 19 19 19 18 18 18 17 17 16 16 17 16 16 18 18 19 18 18 17 17 18 20 20 20 20 19 19
15 15 16 16 16 16 16 16 16 16 17 17 17 17 16 16 18 18 18 18 18 18 17 17 17 17 17 17 16 16 16 17 18 18 17 16 16 17 20 20 20 20 18 18 18
15 15 15 15 15 15 15 15 15 16 16 16 17 17 16 17 18 17 17 18 18 17 17 17 17 17 16 16 17 17 15 14 16 16 16 17 16 15 20 19 19 18 17 18 18
14 15 15 14 14 14 14 15 15 15 16 16 16 16 16 17 17 17 17 16 17 17 17 16 16 16 16 16 16 15 14 13 16 16 17 16 14 16 20 20 19 16 16 15 14
14 14 14 13 13 14 14 14 15 15 15 15 15 15 16 16 16 16 16 16 16 15 15 15 16 16 15 12 11 12 13 12 14 16 16 16 14 16 19 18 16 15 12 11 10
13 13 13 13 13 13 13 14 14 15 15 14 14 14 15 16 16 16 16 15 15 15 14 15 15 10 9 10 12 13 12 12 13 15 15 14 12 12 17 16 14 13 9 9 9
13 13 12 12 12 12 13 13 14 14 13 16 16 15 15 15 15 15 15 14 14 14 12 13 10 10 11 11 13 13 13 12 12 13 13 12 12 13 15 15 12 8 7 6 6
11 11 11 11 11 11 12 13 13 13 13 15 15 14 14 14 14 13 14 14 13 12 11 10 10 12 12 11 11 12 12 11 12 12 14 12 12 12 12 10 9 7 6 5 5
11 10 11 11 11 11 12 12 13 13 12 13 14 13 13 13 13 13 13 13 12 10 10 10 13 12 12 12 12 12 12 12 12 12 12 12 11 12 8 7 7 5 5 5 5
10 10 10 10 10 11 11 12 12 12 9 11 11 12 12 12 12 12 12 13 12 11 10 10 12 13 12 12 12 11 12 12 12 11 11 12 9 10 10 6 5 4 4 4 4
10 10 10 9 10 11 11 12 12 12 10 12 10 11 11 12 11 11 11 12 11 12 11 12 12 12 12 12 11 12 12 13 13 11 10 10 9 9 7 7 4 3 3 4 4
10 9 9 9 9 11 11 11 12 11 9 11 10 10 10 11 11 10 11 11 11 12 12 11 12 12 12 12 12 12 12 9 7 7 7 9 9 9 10 9 4 3 3 3 3
9 9 9 9 10 10 10 11 9 9 12 10 10 9 10 10 9 9 9 9 9 9 10 11 11 12 12 12 11 10 9 8 7 6 8 8 7 9 6 7 5 2 3 3 4
9 9 9 9 9 10 10 9 9 9 9 11 11 10 10 10 10 9 9 9 8 10 9 10 11 10 11 11 11 9 9 7 7 6 7 7 9 9 3 3 4 4 4 4 4
9 9 9 9 9 9 9 9 10 10 10 11 11 11 10 11 11 10 8 9 10 8 11 9 10 11 11 12 11 10 9 10 7 -1 3 7 7 5 4 2 2 3 4 4 5
9 8 8 8 8 8 8 9 9 11 11 12 11 11 9 11 11 9 8 9 10 10 11 10 10 10 10 11 10 10 9 8 5 5 4 6 7 7 4 3 2 2 3 4 4
8 7 6 7 7 7 8 7 8 11 12 11 11 10 10 10 10 8 10 10 9 9 10 9 9 8 9 8 8 8 8 8 7 5 4 3 6 7 5 4 3 3 5 5 5
7 6 6 7 6 5 6 7 9 9 10 9 9 10 9 10 10 9 9 10 10 9 8 8 7 3 7 8 8 9 7 7 5 5 3 5 8 6 5 4 4 5 6 5 5
7 5 5 6 7 5 6 7 8 7 7 8 9 9 9 9 10 8 8 8 9 7 7 7 4 1 4 6 7 7 6 6 5 3 2 4 6 4 4 3 5 5 5 5 4
5 3 3 4 4 6 6 6 7 7 8 8 8 8 8 8 8 8 7 7 7 7 8 8 4 4 6 6 5 5 5 5 5 2 2 4 4 5 3 2 3 5 6 5 4
5 3 4 4 4 5 6 6 6 6 7 6 6 8 7 6 6 6 6 5 5 6 6 6 5 3 4 4 4 4 4 3 4 4 3 5 4 5 4 3 4 4 4 3 2
2 2 2 3 5 5 5 5 6 6 6 6 6 7 7 7 6 5 6 5 5 4 5 4 2 2 0 3 3 2 3 2 3 3 3 3 3 5 5 3 2 3 3 2 2
0 0 2 1 2 4 4 4 5 6 5 7 7 5 5 6 5 4 4 4 4 3 3 3 -0 -2 -1 -1 -1 -2 -0 2 4 2 2 2 2 -2 0 1 2 2 1 1 1
Height
1554 1554 1554 1554 1554 1554 1554 1554 1553 1552 1551 1551 1550 1549 1548 1547 1545 1544 1542 1543 1542 1542 1542 1543 1545 1545 1545 1546 1546 1546 1557 1562 1551 1548 1546 1542 1542 1540 1540 1539 1539 1538 1538 1538 1537
1552 1552 1553 1553 1553 1553 1553 1553 1552 1551 1550 1549 1549 1548 1546 1545 1543 1541 1542 1540 1540 1541 1542 1544 1544 1545 1546 1547 1547 1546 1560 1552 1545 1544 1545 1543 1543 1541 1540 1539 1533 1533 1536 1537 1536
1550 1551 1551 1551 1551 1551 1551 1551 1550 1550 1549 1548 1547 1546 1545 1544 1542 1541 1541 1540 1540 1541 1543 1543 1544 1545 1546 1546 1547 1547 1553 1545 1542 1542 1542 1541 1540 1539 1538 1536 1533 1530 1529 1531 1531
1548 1549 1549 1549 1549 1549 1549 1549 1548 1548 1547 1546 1545 1545 1544 1543 1546 1540 1540 1540 1541 1541 1543 1543 1544 1545 1546 1546 1545 1548 1544 1543 1540 1539 1539 1539 1538 1537 1536 1532 1531 1529 1527 1527 1528
1546 1546 1547 1547 1547 1547 1547 1546 1546 1545 1545 1544 1543 1543 1542 1542 1540 1539 1539 1539 1540 1541 1541 1542 1543 1544 1545 1544 1544 1544 1543 1542 1540 1538 1537 1536 1535 1536 1531 1530 1529 1527 1527 1526 1526
1543 1544 1544 1544 1544 1544 1544 1544 1543 1542 1542 1541 1541 1540 1540 1540 1536 1536 1537 1537 1537 1538 1540 1541 1542 1544 1544 1544 1545 1544 1543 1540 1537 1534 1534 1533 1532 1533 1527 1528 1526 1526 1525 1524 1523
1539 1540 1541 1541 1541 1541 1541 1541 1540 1540 1539 1538 1538 1537 1537 1536 1533 1534 1534 1535 1535 1536 1537 1539 1540 1542 1543 1543 1543 1542 1544 1539 1532 1531 1531 1530 1532 1531 1525 1525 1523 1525 1524 1523 1521
1535 1536 1537 1538 1538 1538 1538 1538 1538 1537 1536 1536 1535 1535 1533 1531 1531 1531 1532 1533 1534 1534 1536 1537 1539 1541 1542 1543 1542 1544 1545 1548 1531 1530 1529 1531 1540 1524 1524 1521 1519 1523 1522 1520 1518
1530 1531 1533 1534 1535 1535 1535 1535 1535 1534 1533 1533 1533 1533 1530 1527 1528 1529 1530 1531 1532 1533 1535 1537 1539 1540 1541 1546 1552 1548 1552 1549 1538 1529 1529 1531 1535 1523 1520 1519 1519 1520 1520 1519 1518
1526 1527 1529 1531 1532 1532 1532 1532 1531 1531 1531 1531 1530 1535 1527 1525 1526 1527 1528 1530 1531 1532 1535 1537 1538 1541 1545 1550 1558 1549 1549 1545 1541 1531 1530 1532 1533 1525 1517 1516 1519 1518 1519 1518 1517
1521 1523 1526 1527 1529 1529 1531 1531 1532 1530 1526 1523 1523 1522 1522 1524 1524 1525 1527 1529 1530 1532 1535 1536 1542 1544 1537 1536 1535 1536 1540 1543 1537 1530 1532 1530 1530 1520 1515 1517 1517 1519 1519 1519 1518
1516 1519 1522 1524 1526 1526 1527 1527 1527 1528 1523 1519 1519 1519 1519 1520 1522 1523 1525 1528 1529 1532 1534 1540 1542 1527 1528 1533 1536 1539 1541 1542 1536 1529 1529 1528 1527 1517 1516 1518 1519 1521 1524 1525 1524
1512 1515 1518 1521 1522 1523 1524 1524 1525 1526 1524 1515 1512 1512 1515 1517 1517 1518 1523 1523 1525 1530 1531 1534 1526 1523 1528 1530 1534 1536 1538 1537 1536 1530 1527 1528 1528 1519 1523 1523 1524 1527 1526 1527 1527
1507 1510 1514 1518 1522 1519 1519 1521 1523 1524 1527 1514 1509 1508 1510 1513 1516 1515 1517 1522 1522 1525 1528 1530 1522 1523 1527 1529 1531 1537 1527 1529 1531 1536 1543 1530 1547 1525 1519 1526 1528 1530 1530 1529 1528
1501 1504 1508 1513 1514 1514 1517 1518 1521 1523 1540 1508 1508 1508 1508 1511 1512 1514 1516 1518 1520 1520 1524 1523 1520 1522 1525 1524 1524 1528 1524 1526 1528 1534 1537 1537 1546 1527 1523 1528 1532 1532 1531 1532 1531
1495 1500 1503 1507 1509 1511 1513 1517 1521 1531 1528 1506 1504 1506 1508 1509 1510 1513 1515 1517 1518 1519 1519 1519 1516 1516 1516 1517 1519 1522 1526 1533 1539 1543 1552 1534 1538 1527 1520 1518 1528 1530 1531 1532 1533
1489 1493 1496 1499 1502 1508 1510 1515 1527 1524 1500 1503 1501 1502 1504 1508 1510 1511 1513 1516 1518 1527 1525 1517 1516 1513 1514 1518 1520 1523 1533 1549 1554 1560 1544 1531 1537 1520 1523 1518 1518 1526 1531 1532 1532
1481 1485 1486 1489 1493 1500 1505 1513 1515 1502 1499 1491 1493 1499 1503 1503 1506 1509 1512 1514 1511 1512 1521 1523 1523 1514 1511 1514 1518 1524 1528 1546 1556 1556 1542 1533 1527 1516 1528 1525 1525 1528 1528 1531 1532
1470 1472 1473 1477 1484 1488 1493 1497 1484 1488 1487 1489 1492 1497 1500 1497 1501 1505 1510 1509 1502 1505 1514 1522 1518 1509 1509 1510 1512 1520 1528 1523 1537 1575 1560 1531 1525 1529 1530 1527 1527 1530 1531 1530 1530
1458 1462 1465 1472 1474 1479 1481 1479 1480 1478 1478 1481 1487 1487 1497 1495 1499 1505 1506 1498 1499 1498 1499 1507 1516 1511 1509 1509 1512 1514 1517 1532 1541 1556 1561 1533 1522 1514 1527 1528 1527 1527 1527 1527 1527
1452 1457 1462 1463 1468 1469 1469 1475 1475 1474 1475 1479 1479 1484 1488 1492 1493 1500 1497 1495 1495 1498 1498 1503 1508 1517 1512 1513 1513 1517 1518 1518 1524 1535 1549 1554 1520 1504 1510 1516 1519 1522 1523 1522 1523
1445 1453 1458 1461 1465 1466 1467 1468 1471 1471 1473 1476 1477 1479 1484 1487 1489 1496 1493 1490 1490 1492 1500 1501 1509 1528 1513 1509 1508 1507 1510 1512 1529 1530 1536 1529 1505 1504 1507 1509 1515 1517 1518 1521 1522
1444 1451 1455 1456 1456 1465 1468 1466 1467 1469 1471 1477 1476 1477 1480 1483 1487 1491 1487 1487 1488 1491 1494 1498 1516 1542 1525 1517 1510 1507 1508 1510 1517 1527 1536 1533 1513 1508 1509 1511 1513 1515 1516 1518 1519
1440 1451 1453 1452 1452 1455 1459 1461 1462 1464 1467 1470 1473 1475 1478 1482 1481 1485 1488 1488 1488 1489 1489 1490 1503 1508 1505 1513 1511 1514 1510 1510 1512 1529 1526 1513 1516 1508 1512 1512 1512 1510 1511 1512 1512
1429 1437 1442 1447 1449 1450 1454 1455 1456 1459 1461 1465 1470 1470 1475 1481 1484 1485 1486 1489 1489 1489 1489 1491 1498 1503 1504 1506 1509 1510 1507 1512 1513 1512 1517 1499 1509 1499 1504 1506 1504 1503 1504 1505 1507
1427 1428 1436 1438 1440 1445 1446 1448 1449 1454 1457 1460 1460 1463 1469 1472 1476 1485 1483 1487 1486 1491 1490 1492 1505 1507 1515 1509 1511 1512 1501 1508 1507 1505 1507 1505 1501 1495 1497 1497 1498 1500 1501 1502 1503
1423 1427 1430 1433 1437 1438 1436 1440 1443 1447 1452 1450 1454 1461 1467 1469 1473 1476 1479 1480 1481 1487 1492 1495 1503 1516 1517 1517 1521 1527 1504 1496 1492 1494 1497 1503 1493 1494 1496 1496 1497 1498 1499 1500 1501
Wind_Speed
4 4 3 3 3 3 3 4 4 5 5 6 7 8 8 9 10 12 13 5 4 5 5 4 3 2 1 2 1 1 4 1 2 2 3 8 6 5 7 4 7 6 9 14 8
6 6 5 4 4 4 5 6 6 7 7 8 9 9 10 11 12 12 4 2 4 4 5 5 4 2 1 0 1 3 3 6 3 2 2 5 2 10 4 11 22 22 15 17 17
8 7 6 6 7 7 7 8 8 9 9 9 10 10 10 11 12 0 2 4 6 7 7 8 3 3 1 2 4 3 4 3 3 3 4 5 9 5 4 5 21 24 25 17 16
10 9 9 9 9 9 8 8 8 9 9 9 10 10 10 8 3 2 4 4 4 5 5 4 5 5 2 3 5 1 9 10 6 7 7 4 6 8 9 18 19 18 18 15 14
12 11 11 11 10 9 9 8 8 9 10 10 10 9 9 6 9 9 7 6 7 9 7 6 7 6 3 3 1 4 4 7 12 17 14 15 15 9 22 19 14 12 11 11 11
14 14 13 12 11 10 9 9 9 9 9 9 9 9 8 7 8 9 9 9 8 9 9 8 3 1 3 3 2 1 5 11 13 22 16 10 7 2 11 10 12 9 15 14 13
17 16 14 13 12 10 10 10 9 9 9 9 10 10 11 13 10 8 6 7 8 9 9 11 10 5 1 1 3 3 5 8 13 6 5 1 2 6 11 14 18 14 14 13 9
18 17 16 14 13 11 10 10 10 10 10 9 9 9 7 9 8 10 10 9 9 10 9 10 9 6 3 1 4 2 2 3 4 2 1 4 8 9 12 17 22 14 9 0 1
19 18 16 13 12 11 11 11 11 11 11 10 8 7 5 5 8 8 8 7 8 9 9 7 5 3 3 5 4 3 3 4 8 4 2 2 6 11 22 21 19 8 6 7 9
20 19 15 13 12 11 10 10 10 11 12 10 11 4 9 5 6 6 6 7 4 7 6 5 4 3 3 3 5 5 4 5 6 3 2 6 9 10 23 22 3 4 13 14 14
20 19 15 14 12 12 9 8 7 5 12 9 5 4 3 8 8 8 9 8 6 5 4 3 4 7 12 11 4 3 4 5 4 7 2 8 5 13 20 19 4 17 17 17 19
20 18 16 14 12 11 9 5 6 4 9 16 20 20 17 11 7 10 10 10 6 5 6 4 7 14 3 5 7 4 5 6 6 5 1 7 9 12 8 6 12 19 17 17 18
21 20 16 16 13 12 11 9 6 5 4 8 13 11 13 15 8 10 17 9 5 7 8 8 7 6 6 5 5 5 5 5 7 5 3 4 6 7 6 16 20 17 18 17 18
23 21 17 16 12 13 13 10 6 1 2 5 5 5 9 8 3 10 18 7 4 10 6 5 9 5 4 4 4 5 6 6 4 3 3 3 5 6 3 6 11 15 17 17 18
25 23 21 21 9 16 9 11 6 3 5 2 4 6 8 7 9 4 13 5 4 5 6 6 4 3 4 7 8 7 4 3 1 2 1 3 0 6 6 4 5 11 16 16 16
27 25 21 23 21 17 13 11 8 3 8 4 5 6 5 4 4 6 4 5 3 2 2 6 1 5 7 2 4 4 4 5 4 3 2 6 6 5 4 5 7 12 16 16 15
31 29 28 28 29 21 18 14 3 6 1 6 6 6 5 6 4 5 5 5 6 5 5 1 4 2 3 4 2 5 5 2 3 2 5 5 3 6 7 2 15 17 18 15 13
36 33 35 34 35 32 25 3 9 9 7 3 5 6 7 7 5 6 6 4 6 2 3 6 4 8 4 5 7 5 7 5 6 3 4 5 5 3 4 13 23 21 19 15 12
40 40 43 42 37 38 26 7 7 7 6 9 3 4 4 5 5 4 7 5 8 11 8 5 5 1 1 2 6 4 4 2 5 2 3 4 1 3 3 5 13 17 15 14 12
40 34 30 37 35 37 8 12 5 5 5 5 8 6 7 6 7 8 9 4 4 5 3 5 1 2 1 2 2 4 5 3 2 2 5 5 5 5 8 9 7 10 14 13 12
34 20 19 27 31 21 8 5 4 7 6 4 6 5 6 6 8 6 5 1 4 5 6 5 4 3 3 5 8 2 2 2 3 5 5 2 6 3 9 12 13 17 20 19 16
21 3 22 26 4 1 5 7 7 5 3 3 3 3 7 7 5 6 9 6 13 11 7 4 4 4 6 2 1 3 6 6 4 5 3 3 11 2 8 17 19 19 18 19 16
15 5 22 26 8 4 3 5 4 4 5 7 7 5 4 7 3 7 5 1 13 9 10 7 1 2 6 5 2 4 3 4 5 3 5 4 6 1 5 9 18 10 14 19 18
13 3 4 13 4 7 9 8 9 8 4 4 5 5 3 4 2 4 4 2 3 4 6 9 5 7 9 5 3 3 5 4 5 3 3 8 5 6 5 7 10 12 15 20 22
10 7 8 6 10 8 12 12 14 8 9 17 6 12 8 6 4 5 3 2 2 6 4 4 5 3 3 5 3 5 8 7 8 6 7 16 9 15 7 5 13 13 10 12 18
6 7 5 2 16 15 14 10 15 11 10 8 7 10 9 12 8 7 7 4 5 2 4 3 1 3 2 3 5 6 14 6 11 13 11 14 19 15 21 11 4 7 9 10 15
4 7 8 4 2 13 8 9 15 9 5 7 13 7 8 8 6 6 6 6 8 8 6 6 6 4 5 2 3 8 9 16 12 9 8 11 13 1 5 9 13 13 12 10 11
Wind_Direction
229 232 243 253 268 282 290 296 299 302 307 309 310 312 314 314 311 310 309 273 242 247 227 194 187 192 149 102 67 83 61 216 232 39 294 352 12 342 328 300 299 264 281 301 299
241 243 248 257 266 275 285 290 295 300 303 303 304 306 311 315 313 310 288 243 207 194 176 167 157 152 107 23 137 100 114 225 195 166 286 297 297 304 312 316 300 301 309 314 301
247 250 256 265 272 277 282 289 294 296 298 299 302 306 311 319 322 196 128 121 133 144 152 161 167 159 153 181 205 163 191 229 233 233 319 273 299 301 329 304 296 307 316 316 309
246 252 259 263 268 273 276 282 287 291 294 296 297 299 300 306 296 202 204 202 195 193 198 212 208 175 189 212 203 166 248 245 271 282 309 285 299 299 251 276 317 318 325 319 314
253 257 260 265 266 270 274 275 280 287 291 291 291 289 285 265 252 252 232 232 237 230 225 232 200 184 194 220 271 190 260 264 267 286 286 280 267 262 278 293 312 324 12 25 2
256 261 261 259 261 264 267 275 281 285 288 290 287 284 265 241 258 251 249 243 243 226 229 211 189 169 273 261 184 306 289 286 288 279 277 261 290 164 278 307 305 305 341 347 343
254 254 255 255 256 260 267 271 277 281 283 283 281 273 259 263 257 242 240 231 225 221 212 208 215 224 198 302 335 312 325 319 281 274 232 211 311 228 289 295 292 307 337 327 317
251 251 251 253 256 257 264 270 275 281 282 280 277 268 255 258 247 248 249 241 226 223 219 214 219 245 233 297 340 332 31 339 281 164 215 149 264 272 306 303 297 344 350 125 67
244 246 249 246 246 255 265 273 276 274 274 274 267 240 251 240 233 239 235 223 216 219 219 216 215 202 140 90 359 347 226 211 308 239 149 142 251 276 299 289 315 2 129 104 88
243 241 237 237 240 250 264 276 275 270 263 259 242 255 233 217 210 211 205 184 173 169 153 161 153 90 43 103 222 215 214 234 226 271 116 244 253 269 283 298 40 132 117 101 87
240 239 231 227 234 250 253 273 271 251 227 217 216 208 217 211 210 199 185 185 162 158 153 165 108 203 209 201 188 185 206 241 282 267 213 267 284 283 277 296 84 125 113 99 86
232 230 226 224 228 238 241 236 240 256 293 249 246 247 247 231 223 201 194 175 171 185 128 63 213 230 191 167 220 256 256 259 268 253 220 286 286 278 346 29 133 123 107 98 93
230 230 222 218 225 229 232 233 242 247 266 270 238 231 234 226 222 207 186 185 171 172 193 175 217 187 172 211 173 216 199 225 238 332 283 333 293 300 59 82 96 100 107 99 90
229 228 218 211 225 218 221 214 216 241 285 253 215 201 178 158 219 182 184 182 202 204 173 233 257 201 176 227 174 274 201 211 209 106 239 22 285 303 144 97 73 95 97 97 94
228 225 214 205 208 199 203 189 185 135 287 243 156 156 159 175 137 177 190 197 195 188 125 236 197 160 181 222 159 224 153 168 163 187 74 276 338 259 112 132 126 115 112 106 100
228 223 213 209 212 204 183 171 140 69 244 206 147 169 132 169 158 131 161 173 169 184 199 232 234 181 202 117 166 132 80 54 54 94 299 220 165 278 196 198 147 141 132 122 111
227 223 216 214 214 200 183 151 99 217 259 198 187 162 183 169 179 170 165 178 160 132 224 238 228 229 181 118 47 91 76 310 334 1 228 176 132 246 323 296 156 141 136 130 121
226 223 220 222 213 206 178 122 208 192 214 163 146 135 179 159 206 184 145 203 230 210 128 180 270 172 178 199 184 174 160 165 226 215 248 280 240 275 21 81 127 140 139 139 134
228 227 224 216 216 194 169 199 211 176 188 159 84 139 215 210 149 149 200 207 207 180 180 171 266 124 142 168 141 184 178 191 108 47 48 234 53 130 85 88 128 143 153 159 159
227 207 198 202 189 180 183 206 207 210 153 163 174 165 176 201 168 178 188 201 201 193 169 202 202 237 237 119 51 148 159 77 2 188 244 276 259 207 192 184 178 177 178 179 178
201 167 167 172 177 174 197 193 224 241 176 178 191 145 192 184 189 192 200 240 168 174 142 144 136 232 117 208 184 142 203 155 149 156 183 234 258 214 176 181 185 197 201 196 195
162 136 177 171 135 219 188 170 191 195 112 58 88 142 173 178 167 216 207 212 180 159 158 198 146 179 200 306 301 211 189 165 156 240 245 177 257 15 170 179 183 197 219 214 213
168 137 182 184 183 189 209 187 206 137 165 192 204 190 188 179 194 209 201 292 180 164 165 177 160 23 347 342 333 203 168 132 94 78 213 199 259 313 140 164 195 242 243 224 230
153 133 187 212 182 182 180 195 199 210 180 164 181 147 121 213 246 206 169 219 171 186 166 148 160 176 220 185 141 207 183 143 159 156 189 227 290 237 206 227 255 269 268 254 237
165 170 200 178 207 192 192 181 193 183 195 200 209 196 173 198 198 213 149 133 27 163 143 144 195 160 164 142 183 222 238 167 200 206 208 264 232 259 260 239 278 291 277 240 226
147 146 166 223 188 189 185 197 194 185 162 204 203 184 186 207 181 193 164 178 191 186 149 32 199 103 299 201 218 256 260 195 215 242 242 253 268 271 284 285 246 241 232 219 214
193 145 146 133 287 189 196 182 201 157 209 193 200 145 194 208 149 131 150 144 166 160 175 159 139 114 249 58 78 299 233 228 239 213 219 229 242 284 276 246 239 229 220 206 206